{"data":{"norad_id":67040,"intl_designator":"2025-294L","name":"STARLINK-35786","alt_names":[],"object_type":"PAYLOAD","status":"ACTIVE","operator":null,"country":"US","launch_date":"2025-12-11","launch_site_code":"AFETR","launch_vehicle":null,"mission":null,"orbit_class":"UNKNOWN","rcs_meters":null,"size_class":null,"mass_kg":null,"dimensions":null,"purposes":["comms"],"wikipedia_slug":null,"has_3d_model":false,"image_url":null,"decayed_at":null,"tle_current":{"epoch":"2026-05-24T21:49:49.726848Z","epoch_age_seconds":76732,"freshness":"FRESH","line1":"1 67040U 25294L   26144.90960332  .00017965  00000+0  66032-3 0  9995","line2":"2 67040  43.0038 327.8406 0002006 283.1890  76.8738 15.27602802 26455","mean_motion":15.27602802,"eccentricity":0.0002006,"inclination_deg":43.0038,"raan_deg":327.8406,"arg_perigee_deg":283.189,"mean_anomaly_deg":76.8738,"bstar":0.00066032,"rev_number":2645,"period_min":94.265341626416,"perigee_km":481.60447926338,"apogee_km":484.35715973256,"semimajor_km":6861.117819498,"source":"CELESTRAK","updated_at":"2026-05-25T13:38:21.438322Z"}}}